STARLINK-34969 (65241 NORAD) Tracking and Keplerian Element Data

This shows tracking and keplerian element data for the satellite.

Feedback or suggestion? Click here.




ElementValue
Catalog65241
NameSTARLINK-34969
Epoch Orbit1984
Epoch Day354.10658524
Epoch Year2025
RAAN34.5198
Inclination97.6051
Eccentricity0.0001659
Argument of Perigee82.3243
Mean Anonmoly277.8173
Mean Motion15.05652942
Decay Rate4.095E-05
L11 65241U 25179G 25354.10658524 .00004095 00000+0 28784-3 0 9991
L22 65241 97.6051 34.5198 0001659 82.3243 277.8173 15.05652942 19847



Live tracking and technical data element details for STARLINK-34969 (NORAD 65241). STARLINK-34969 can be tracked NOW for your location showing map with azimuth and elevation plus other details from your city location.







IsCatalogInMostPopularTable: catalog: 65241, numindb: 12
Update: records affected: 1



GetName: 65241 STARLINK-34969

Hit Count: updated at: Tue, 21 Apr 2026 19:53:16 GMT